518  
AXUS43 KGID 240002  
MISGRI  
 
GID CWA HOURLY WEATHER ROUNDUP  
NATIONAL WEATHER SERVICE HASTINGS NE  
700 PM CDT TUE SEP 23 2014  
 
NOTE: "FAIR" INDICATES FEW OR NO CLOUDS BELOW 12,000 FEET WITH NO  
SIGNIFICANT WEATHER AND/OR OBSTRUCTIONS TO VISIBILITY.  
   
..SOUTH CENTRAL NEBRASKA
 
 
 
CITY SKY/WX TMP DP RH WIND PRES REMARKS  
GRAND ISLAND CLEAR 67 57 70 S14 30.01F  
HASTINGS PTCLDY 66 55 67 SE13G22 30.01S  
KEARNEY PTCLDY 68 57 68 SE13 30.00R  
ORD LGT RAIN 66 59 78 SE13 29.95F  
YORK MOCLDY 64 57 77 S14G21 30.04S  
AURORA PTCLDY 65 56 72 SE15 30.02S  
LEXINGTON CLEAR 75 62 62 SE14 29.95R  
HOLDREGE CLEAR 70 58 65 SE13 29.97S  
HEBRON CLOUDY 65 56 71 SE15G25 30.02F  
   
..NEBRASKA PANHANDLE
 
 
 
CITY SKY/WX TMP DP RH WIND PRES REMARKS  
CHADRON CLOUDY 73 59 61 SE3 29.95S  
ALLIANCE PTCLDY 78 48 34 N10 29.99R  
SCOTTSBLUFF MOCLDY 80 46 30 N16G22 30.01R  
SIDNEY PTCLDY 77 45 32 NW7 30.04R  
   
..WESTERN AND NORTH CENTRAL NEBRASKA
 
 
 
CITY SKY/WX TMP DP RH WIND PRES REMARKS  
VALENTINE CLEAR 76 58 53 E5 29.90S  
AINSWORTH MOCLDY 67 60 78 SE13 29.92S  
ONEILL LGT RAIN 64 60 87 SE13G18 29.97R  
BROKEN BOW MOCLDY 70 57 63 N6 29.97R  
IMPERIAL PTCLDY 82 44 26 W9 29.96S  
NORTH PLATTE MOCLDY 76 59 55 S8 29.92R  
MCCOOK PTCLDY 78 58 49 SE5 29.94S  
   
..EASTERN NEBRASKA
 
 
 
CITY SKY/WX TMP DP RH WIND PRES REMARKS  
NORFOLK CLOUDY 63 57 81 SE15G23 30.03S  
SO SIOUX CITY CLOUDY 67 57 70 S14G22 30.06R  
TEKAMAH CLOUDY 66 52 60 S15 30.08R  
COLUMBUS CLOUDY 63 55 77 S12 30.06S  
ALBION MOCLDY 64 55 73 S13G22 30.02S  
OMAHA EPPLEY CLOUDY 66 53 63 S21 30.09F  
OFFUTT AFB MOCLDY 65 59 81 SE18 30.10F  
MILLARD CLOUDY 65 54 68 SE13G21 30.09S  
LINCOLN CLOUDY 63 54 72 SE16G24 30.06F  
NEBRASKA CITY CLOUDY 61 55 78 SE9 30.11F  
BEATRICE CLOUDY 62 57 83 SE15G21 30.06F  
FALLS CITY TSTM 63 63 100 S8 30.15R  
   
..NORTHERN KANSAS
 
 
 
CITY SKY/WX TMP DP RH WIND PRES REMARKS  
GOODLAND CLOUDY 75 57 53 SW6 30.03F  
HILL CITY PTCLDY 79 60 52 S13G23 29.97R  
NORTON CLEAR 75 59 57 E7 29.94  
PHILLIPSBURG CLEAR 77 61 57 E9 29.96R  
SMITH CENTER CLEAR 66 59 77 SE16G23 29.98S  
BELOIT CLEAR 70 61 73 SE10 29.98S  
RUSSELL MOCLDY 74 57 55 SE15 29.97S  
CONCORDIA CLOUDY 66 61 84 SE16 30.02F  
SALINA MOCLDY 73 57 57 SE13 30.02S  
TOPEKA LGT RAIN 68 59 73 SE9 30.10F  
 
CLICK HERE TO GO TO PREVIOUS BULLETINS.

The Nexlab NE Page
The Nexlab KS Page Main Text Page